Location: Brown Observing Site
(43.4354°N, 116.3366°W)
Time: 22:16:00
(UTC-06:00)

Envisat - Pass Details

Date: 29 March 2019
Orbit: 764 x 766 km, 98.1° (Epoch: 13 October)

Event Time Altitude Azimuth Distance (km) Brightness Sun altitude
Rises 21:38:16 0° 210° (SSW) 3,216 6.3 -16.6°
Reaches altitude 10° 21:41:26 10° 231° (SW) 2,296 5.8 -17.2°
Maximum altitude 21:44:33 16° 270° (W) 1,898 5.9 -17.7°
Drops below altitude 10° 21:47:42 10° 308° (NW) 2,308 6.6 -18.2°
Sets 21:50:54 0° 330° (NNW) 3,240 7.1 -18.7°
